| time (UTC) | temp F | wind direction | speed knots | gust knots | rain 1hr in | rain 24hr in | rain mn in | humidity % | barometer mb |
| 20260510033025 | 72 | 176 | 6.1 | 8.7 | 0.00 | 0.00 | 0.00 | 68 | 1027.4 |
| 20260510032043 | 72 | 137 | 5.2 | 7.8 | 0.00 | 0.00 | 0.00 | 69 | 1027.4 |
| 20260510031042 | 71 | 137 | 3.5 | 7.0 | 0.00 | 0.00 | 0.00 | 70 | 1027.3 |
| 20260510030021 | 71 | 140 | 5.2 | 8.7 | 0.00 | 0.00 | 0.00 | 70 | 1027.5 |
| 20260510025020 | 72 | 102 | 8.7 | 13.9 | 0.00 | 0.00 | 0.00 | 69 | 1027.4 |
| 20260510024018 | 71 | 140 | 6.1 | 11.3 | 0.00 | 0.00 | 0.00 | 69 | 1027.6 |
| 20260510023017 | 71 | 152 | 5.2 | 6.1 | 0.00 | 0.00 | 0.00 | 69 | 1027.6 |
| 20260510022016 | 71 | 170 | 7.8 | 13.0 | 0.00 | 0.00 | 0.00 | 70 | 1027.7 |
| 20260510021045 | 71 | 126 | 4.3 | 7.0 | 0.00 | 0.00 | 0.00 | 71 | 1027.8 |
| 20260510020043 | 71 | 136 | 9.6 | 11.3 | 0.00 | 0.00 | 0.00 | 70 | 1027.9 |
| 20260510015042 | 71 | 152 | 7.0 | 7.8 | 0.00 | 0.00 | 0.00 | 70 | 1028.0 |
| 20260510014041 | 71 | 108 | 6.1 | 9.6 | 0.00 | 0.00 | 0.00 | 68 | 1028.1 |
| 20260510013040 | 72 | 157 | 7.0 | 9.6 | 0.00 | 0.00 | 0.00 | 69 | 1028.1 |
| 20260510012038 | 72 | 220 | 3.5 | 3.5 | 0.00 | 0.00 | 0.00 | 67 | 1028.4 |
| 20260510011118 | 71 | 142 | 4.3 | 6.1 | 0.00 | 0.00 | 0.00 | 67 | 1028.3 |
| 20260510010056 | 71 | 227 | 3.5 | 5.2 | 0.00 | 0.00 | 0.00 | 66 | 1028.4 |
| 20260510005035 | 70 | 155 | 3.5 | 4.3 | 0.00 | 0.00 | 0.00 | 68 | 1028.5 |
| 20260510004034 | 69 | 173 | 2.6 | 4.3 | 0.00 | 0.00 | 0.00 | 69 | 1028.8 |
| 20260510003032 | 69 | 189 | 0.9 | 4.3 | 0.00 | 0.00 | 0.00 | 70 | 1028.8 |
| 20260510002031 | 68 | 189 | 1.7 | 3.5 | 0.00 | 0.00 | 0.00 | 70 | 1029.0 |
| 20260510001030 | 68 | 197 | 3.5 | 5.2 | 0.00 | 0.00 | 0.00 | 69 | 1028.9 |
| 20260510000029 | 68 | 151 | 6.1 | 10.4 | 0.00 | 0.00 | 0.00 | 70 | 1028.9 |
| 20260509235027 | 67 | 226 | 2.6 | 4.3 | 0.00 | 0.00 | 0.00 | 71 | 1028.8 |
| 20260509234026 | 66 | 247 | 2.6 | 4.3 | 0.00 | 0.00 | 0.00 | 71 | 1028.9 |
| 20260509233025 | 66 | 246 | 1.7 | 3.5 | 0.00 | 0.00 | 0.00 | 72 | 1028.8 |
| 20260509232024 | 65 | 171 | 0.9 | 4.3 | 0.00 | 0.00 | 0.00 | 73 | 1028.9 |
| 20260509231023 | 64 | 279 | 1.7 | 3.5 | 0.00 | 0.00 | 0.00 | 73 | 1028.9 |
| 20260509230021 | 64 | 280 | 1.7 | 3.5 | 0.00 | 0.00 | 0.00 | 74 | 1028.8 |
| 20260509225020 | 63 | 237 | 1.7 | 2.6 | 0.00 | 0.00 | 0.00 | 74 | 1028.7 |
| 20260509224019 | 62 | 250 | 1.7 | 2.6 | 0.00 | 0.00 | 0.00 | 75 | 1028.7 |
| 20260509223018 | 61 | 259 | 4.3 | 5.2 | 0.00 | 0.00 | 0.00 | 77 | 1028.7 |
| 20260509222036 | 60 | 150 | 1.7 | 3.5 | 0.00 | 0.00 | 0.00 | 78 | 1028.7 |
| 20260509221046 | 59 | 225 | 5.2 | 6.1 | 0.00 | 0.00 | 0.00 | 80 | 1028.5 |
| 20260509220044 | 58 | 202 | 1.7 | 3.5 | 0.00 | 0.00 | 0.00 | 81 | 1028.3 |
| 20260509215042 | 57 | 220 | 1.7 | 3.5 | 0.00 | 0.00 | 0.00 | 83 | 1028.2 |
| 20260509214041 | 57 | 195 | 2.6 | 3.5 | 0.00 | 0.00 | 0.00 | 82 | 1028.4 |
| 20260509213040 | 56 | 139 | 4.3 | 5.2 | 0.00 | 0.00 | 0.00 | 84 | 1028.4 |
| 20260509212039 | 55 | 138 | 2.6 | 3.5 | 0.00 | 0.00 | 0.00 | 86 | 1028.4 |
| 20260509211037 | 54 | 150 | 2.6 | 3.5 | 0.00 | 0.00 | 0.00 | 87 | 1028.0 |
| 20260509210035 | 54 | 191 | 2.6 | 3.5 | 0.00 | 0.00 | 0.00 | 88 | 1028.0 |
| 20260509205034 | 53 | 179 | 2.6 | 3.5 | 0.00 | 0.00 | 0.00 | 90 | 1027.9 |
| 20260509204053 | 52 | 146 | 1.7 | 2.6 | 0.00 | 0.00 | 0.00 | 91 | 1027.8 |
| 20260509203032 | 52 | 148 | 1.7 | 3.5 | 0.00 | 0.00 | 0.00 | 90 | 1027.9 |
| 20260509202031 | 53 | 155 | 2.6 | 2.6 | 0.00 | 0.00 | 0.00 | 89 | 1027.6 |
| 20260509201029 | 53 | 161 | 1.7 | 2.6 | 0.00 | 0.00 | 0.00 | 89 | 1027.4 |
| 20260509200109 | 53 | 163 | 1.7 | 3.5 | 0.00 | 0.00 | 0.00 | 89 | 1027.4 |
| 20260509195027 | 53 | 209 | 1.7 | 3.5 | 0.00 | 0.00 | 0.00 | 89 | 1027.2 |
| 20260509194025 | 54 | 148 | 2.6 | 3.5 | 0.00 | 0.00 | 0.00 | 88 | 1027.1 |
| 20260509193025 | 54 | 155 | 2.6 | 3.5 | 0.00 | 0.00 | 0.00 | 88 | 1027.0 |
| 20260509192044 | 54 | 178 | 2.6 | 3.5 | 0.00 | 0.00 | 0.00 | 89 | 1026.9 |
| 20260509191022 | 54 | 172 | 2.6 | 3.5 | 0.00 | 0.00 | 0.00 | 89 | 1026.7 |
| 20260509190021 | 54 | 192 | 2.6 | 3.5 | 0.00 | 0.00 | 0.00 | 88 | 1026.8 |
| 20260509185019 | 54 | 181 | 2.6 | 4.3 | 0.00 | 0.00 | 0.00 | 89 | 1026.8 |
| 20260509184018 | 53 | 132 | 2.6 | 5.2 | 0.00 | 0.00 | 0.00 | 89 | 1026.6 |
| 20260509183038 | 54 | 162 | 1.7 | 3.5 | 0.00 | 0.00 | 0.00 | 89 | 1026.5 |
| 20260509182037 | 54 | 202 | 2.6 | 3.5 | 0.00 | 0.00 | 0.00 | 88 | 1026.4 |
| 20260509181105 | 54 | 198 | 2.6 | 3.5 | 0.00 | 0.00 | 0.00 | 88 | 1026.3 |
| 20260509180043 | 54 | 204 | 3.5 | 5.2 | 0.00 | 0.00 | 0.00 | 89 | 1026.3 |
| 20260509175043 | 55 | 147 | 2.6 | 4.3 | 0.00 | 0.00 | 0.00 | 87 | 1026.3 |
| 20260509174041 | 54 | 143 | 2.6 | 3.5 | 0.00 | 0.00 | 0.00 | 90 | 1026.1 |
| 20260509173040 | 54 | 154 | 2.6 | 3.5 | 0.00 | 0.00 | 0.00 | 89 | 1026.2 |
| 20260509172039 | 54 | 191 | 1.7 | 2.6 | 0.00 | 0.00 | 0.00 | 88 | 1026.2 |
| 20260509171058 | 54 | 189 | 1.7 | 2.6 | 0.00 | 0.00 | 0.00 | 89 | 1026.1 |
| 20260509170036 | 54 | 144 | 3.5 | 3.5 | 0.00 | 0.00 | 0.00 | 89 | 1026.0 |
| 20260509165035 | 54 | 114 | 2.6 | 3.5 | 0.00 | 0.00 | 0.00 | 88 | 1026.1 |
| 20260509164034 | 55 | 88 | 0.9 | 2.6 | 0.00 | 0.00 | 0.00 | 87 | 1026.2 |
| 20260509163052 | 56 | 161 | 4.3 | 6.1 | 0.00 | 0.00 | 0.00 | 85 | 1026.0 |
| 20260509162031 | 56 | 174 | 3.5 | 4.3 | 0.00 | 0.00 | 0.00 | 85 | 1026.2 |
| 20260509161029 | 56 | 161 | 1.7 | 4.3 | 0.00 | 0.00 | 0.00 | 86 | 1026.1 |
| 20260509160048 | 56 | 207 | 3.5 | 4.3 | 0.00 | 0.00 | 0.00 | 86 | 1026.2 |
| 20260509155027 | 56 | 268 | 4.3 | 6.1 | 0.00 | 0.00 | 0.00 | 86 | 1026.2 |
| 20260509154026 | 55 | 241 | 0.9 | 1.7 | 0.00 | 0.00 | 0.00 | 87 | 1026.1 |
| 20260509153105 | 55 | 173 | 1.7 | 4.3 | 0.00 | 0.00 | 0.00 | 87 | 1026.1 |
| 20260509152023 | 55 | 169 | 1.7 | 1.7 | 0.00 | 0.00 | 0.00 | 87 | 1026.2 |
| 20260509151102 | 55 | 144 | 2.6 | 4.3 | 0.00 | 0.00 | 0.00 | 87 | 1026.3 |
| 20260509150042 | 56 | 142 | 3.5 | 3.5 | 0.00 | 0.00 | 0.00 | 85 | 1026.3 |
| 20260509145019 | 57 | 128 | 2.6 | 3.5 | 0.00 | 0.00 | 0.00 | 84 | 1026.3 |
| 20260509144018 | 56 | 139 | 3.5 | 4.3 | 0.00 | 0.00 | 0.00 | 86 | 1026.3 |
| 20260509143017 | 56 | 121 | 2.6 | 3.5 | 0.00 | 0.00 | 0.00 | 87 | 1026.4 |
| 20260509142016 | 57 | 118 | 2.6 | 2.6 | 0.00 | 0.00 | 0.00 | 84 | 1026.3 |
| 20260509141105 | 58 | 133 | 2.6 | 3.5 | 0.00 | 0.00 | 0.00 | 83 | 1026.3 |
| 20260509140044 | 58 | 140 | 2.6 | 3.5 | 0.00 | 0.00 | 0.00 | 84 | 1026.2 |
| 20260509135042 | 58 | 145 | 2.6 | 3.5 | 0.00 | 0.00 | 0.00 | 83 | 1026.2 |
| 20260509134101 | 58 | 186 | 2.6 | 3.5 | 0.00 | 0.00 | 0.00 | 83 | 1026.3 |
| 20260509133041 | 58 | 185 | 1.7 | 3.5 | 0.00 | 0.00 | 0.00 | 84 | 1026.3 |
| 20260509132038 | 58 | 178 | 1.7 | 2.6 | 0.00 | 0.00 | 0.00 | 85 | 1026.6 |
| 20260509131037 | 58 | 174 | 1.7 | 2.6 | 0.00 | 0.00 | 0.00 | 88 | 1026.5 |
| 20260509130035 | 58 | 171 | 1.7 | 1.7 | 0.00 | 0.00 | 0.00 | 87 | 1026.4 |
| 20260509125035 | 59 | 144 | 2.6 | 3.5 | 0.00 | 0.00 | 0.00 | 85 | 1026.3 |
| 20260509124033 | 60 | 157 | 1.7 | 2.6 | 0.00 | 0.00 | 0.00 | 84 | 1026.3 |
| 20260509123032 | 60 | 158 | 2.6 | 4.3 | 0.00 | 0.00 | 0.00 | 83 | 1026.4 |
| 20260509122031 | 60 | 144 | 2.6 | 3.5 | 0.00 | 0.00 | 0.00 | 84 | 1026.1 |
| 20260509121030 | 59 | 136 | 2.6 | 3.5 | 0.00 | 0.00 | 0.00 | 85 | 1026.3 |
| 20260509120028 | 60 | 150 | 2.6 | 3.5 | 0.00 | 0.00 | 0.00 | 84 | 1026.3 |
| 20260509115027 | 60 | 138 | 2.6 | 3.5 | 0.00 | 0.00 | 0.00 | 83 | 1026.4 |
| 20260509114026 | 60 | 150 | 3.5 | 3.5 | 0.00 | 0.00 | 0.00 | 83 | 1026.3 |
| 20260509113026 | 60 | 157 | 2.6 | 3.5 | 0.00 | 0.00 | 0.00 | 83 | 1026.4 |
| 20260509112024 | 60 | 123 | 2.6 | 3.5 | 0.00 | 0.00 | 0.00 | 82 | 1026.4 |
| 20260509111023 | 61 | 145 | 2.6 | 4.3 | 0.00 | 0.00 | 0.00 | 82 | 1026.3 |
| 20260509110021 | 61 | 157 | 2.6 | 3.5 | 0.00 | 0.00 | 0.00 | 83 | 1026.1 |
| 20260509105019 | 61 | 140 | 2.6 | 2.6 | 0.00 | 0.00 | 0.00 | 82 | 1026.1 |
| 20260509104019 | 61 | 136 | 2.6 | 3.5 | 0.00 | 0.00 | 0.00 | 82 | 1026.1 |
| 20260509103016 | 62 | 155 | 1.7 | 3.5 | 0.00 | 0.00 | 0.00 | 82 | 1026.0 |
| 20260509102045 | 62 | 170 | 2.6 | 4.3 | 0.00 | 0.00 | 0.00 | 82 | 1026.0 |
| 20260509101044 | 62 | 167 | 2.6 | 2.6 | 0.00 | 0.00 | 0.00 | 82 | 1025.9 |
| 20260509095041 | 62 | 152 | 1.7 | 3.5 | 0.00 | 0.00 | 0.00 | 81 | 1025.9 |
| 20260509094121 | 63 | 161 | 2.6 | 3.5 | 0.00 | 0.00 | 0.00 | 80 | 1025.7 |
| 20260509093039 | 63 | 137 | 1.7 | 3.5 | 0.00 | 0.00 | 0.00 | 79 | 1025.5 |
| 20260509092038 | 64 | 154 | 1.7 | 2.6 | 0.00 | 0.00 | 0.00 | 79 | 1025.4 |
| 20260509091037 | 64 | 149 | 1.7 | 2.6 | 0.00 | 0.00 | 0.00 | 78 | 1025.6 |
| 20260509090036 | 65 | 186 | 1.7 | 3.5 | 0.00 | 0.00 | 0.00 | 76 | 1025.0 |
| 20260509085034 | 65 | 138 | 4.3 | 5.2 | 0.00 | 0.00 | 0.00 | 77 | 1025.1 |
| 20260509084033 | 65 | 134 | 3.5 | 4.3 | 0.00 | 0.00 | 0.00 | 76 | 1025.1 |
| 20260509083031 | 65 | 141 | 3.5 | 4.3 | 0.00 | 0.00 | 0.00 | 75 | 1024.9 |
| 20260509082030 | 65 | 135 | 3.5 | 4.3 | 0.00 | 0.00 | 0.00 | 75 | 1024.9 |
| 20260509081029 | 65 | 165 | 2.6 | 4.3 | 0.00 | 0.00 | 0.00 | 76 | 1024.9 |
| 20260509080028 | 65 | 158 | 3.5 | 4.3 | 0.00 | 0.00 | 0.00 | 76 | 1024.8 |
| 20260509075027 | 65 | 160 | 1.7 | 2.6 | 0.00 | 0.00 | 0.00 | 76 | 1024.8 |
| 20260509074026 | 65 | 161 | 2.6 | 3.5 | 0.00 | 0.00 | 0.00 | 74 | 1024.5 |
| 20260509073024 | 66 | 160 | 0.9 | 2.6 | 0.00 | 0.00 | 0.00 | 73 | 1024.4 |
| 20260509072023 | 66 | 172 | 1.7 | 2.6 | 0.00 | 0.00 | 0.00 | 72 | 1024.4 |
| 20260509071021 | 66 | 181 | 1.7 | 1.7 | 0.00 | 0.00 | 0.00 | 72 | 1024.2 |
| 20260509070020 | 67 | 134 | 2.6 | 2.6 | 0.00 | 0.00 | 0.00 | 72 | 1024.1 |
| 20260509065019 | 67 | 121 | 1.7 | 1.7 | 0.00 | 0.00 | 0.00 | 71 | 1023.9 |
| 20260509064018 | 67 | 175 | 1.7 | 2.6 | 0.00 | 0.00 | 0.00 | 70 | 1024.1 |
| 20260509063017 | 67 | 143 | 4.3 | 6.1 | 0.00 | 0.00 | 0.00 | 70 | 1023.9 |
| 20260509062045 | 67 | 139 | 4.3 | 5.2 | 0.00 | 0.00 | 0.00 | 69 | 1023.9 |
| 20260509061044 | 68 | 141 | 2.6 | 3.5 | 0.00 | 0.00 | 0.00 | 68 | 1023.7 |
| 20260509060043 | 68 | 110 | 1.7 | 4.3 | 0.00 | 0.00 | 0.00 | 67 | 1023.6 |
| 20260509055042 | 68 | 96 | 5.2 | 5.2 | 0.00 | 0.00 | 0.00 | 67 | 1023.5 |
| 20260509054040 | 68 | 95 | 2.6 | 5.2 | 0.00 | 0.00 | 0.00 | 66 | 1023.3 |
| 20260509053040 | 69 | 153 | 1.7 | 4.3 | 0.00 | 0.00 | 0.00 | 65 | 1023.4 |
| 20260509052038 | 69 | 115 | 3.5 | 6.1 | 0.00 | 0.00 | 0.00 | 64 | 1023.3 |
| 20260509051036 | 70 | 144 | 3.5 | 5.2 | 0.00 | 0.00 | 0.00 | 63 | 1023.4 |
| 20260509050035 | 69 | 109 | 4.3 | 6.1 | 0.00 | 0.00 | 0.00 | 63 | 1023.1 |
| 20260509045033 | 69 | 124 | 4.3 | 7.8 | 0.00 | 0.00 | 0.00 | 63 | 1023.3 |
| 20260509044032 | 69 | 110 | 3.5 | 5.2 | 0.00 | 0.00 | 0.00 | 62 | 1023.1 |
| 20260509043031 | 70 | 129 | 3.5 | 5.2 | 0.00 | 0.00 | 0.00 | 61 | 1023.1 |
| 20260509042050 | 69 | 130 | 4.3 | 5.2 | 0.00 | 0.00 | 0.00 | 62 | 1023.2 |
| 20260509041028 | 68 | 128 | 3.5 | 4.3 | 0.00 | 0.00 | 0.00 | 62 | 1023.2 |
| 20260509040027 | 68 | 131 | 0.9 | 2.6 | 0.00 | 0.00 | 0.00 | 64 | 1023.2 |
| 20260509035046 | 69 | 102 | 4.3 | 6.1 | 0.00 | 0.00 | 0.00 | 62 | 1023.3 |
| 20260509034025 | 69 | 76 | 2.6 | 4.3 | 0.00 | 0.00 | 0.00 | 61 | 1023.1 |